Chester, CT

11:51 AM EDT on October 18, 2017 (GMT -0400)
Chester

Weather History for KSNC - January, 2013

Change the Weather History Date:

Friday, January 18, 2013

  Actual Average (KHVN) Record (KHVN)
Temperature  
Mean Temperature 26 °F -  
Max Temperature 30 °F 32 °F 64 °F (1990)
Min Temperature 23 °F 20 °F 0 °F (1971)
Degree Days  
Heating Degree Days 38    
Moisture  
Dew Point 5 °F    
Average Humidity 41    
Maximum Humidity 55    
Minimum Humidity 29    
Precipitation  
Precipitation 0.00 in - - ()
Sea Level Pressure  
Sea Level Pressure 30.31 in    
Wind  
Wind Speed 10 mph (NNW)    
Max Wind Speed 18 mph    
Max Gust Speed 26 mph    
Visibility 10 miles    
Events Snow    
Averages and records for this station are not official NWS values.
T = Trace of Precipitation, MM = Missing Value Source: NWS Daily Summary

Daily Weather History Graph

Daily Weather History Graph

Search for Another Location

Airport or City:

Trip Planner

Search our weather history database for the weather conditions in past years. The results will help you decide how hot, cold, wet, or windy it might be!

Date:

Astronomy

Jan. 18, 2013 Rise Set
Actual Time 7:12 AM EST 4:49 PM EST
Civil Twilight 6:41 AM EST 5:19 PM EST
Nautical Twilight 6:08 AM EST 5:53 PM EST
Astronomical Twilight 5:35 AM EST 6:26 PM EST
Moon 10:43 AM EST No Moon Set
Length of Visible Light 10h 37m
Length of Day
9h 37m
Waxing Crescent, 47% of the Moon is Illuminated
Jan 18
Waxing Crescent
Jan 18
First Quarter
Jan 26
Full
Feb 3
Last Quarter
Feb 10
New

Hourly Weather History & Observations

Time (EST) Temp. Windchill Dew Point Humidity Pressure Visibility Wind Dir Wind Speed Gust Speed Precip Events Conditions
12:15 AM 30.2 °F 21.3 °F 14.0 °F 51% 30.02 in 10.0 mi NNE 10.4 mph 16.1 mph N/A   Overcast
12:35 AM 30.2 °F 21.9 °F 15.8 °F 55% 30.01 in 10.0 mi NNE 9.2 mph - N/A   Overcast
12:55 AM 30.2 °F 21.3 °F 14.0 °F 51% 30.04 in 10.0 mi North 10.4 mph - N/A   Overcast
1:15 AM 30.2 °F 21.3 °F 12.2 °F 47% 30.05 in 10.0 mi North 10.4 mph 18.4 mph N/A   Overcast
1:35 AM 30.2 °F 20.8 °F 12.2 °F 47% 30.07 in 10.0 mi North 11.5 mph 23.0 mph N/A Snow Light Snow
1:55 AM 30.2 °F 20.8 °F 10.4 °F 44% 30.05 in 10.0 mi North 11.5 mph 17.3 mph N/A Snow Light Snow
2:15 AM 30.2 °F 18.9 °F 12.2 °F 47% 30.04 in 10.0 mi North 16.1 mph 21.9 mph N/A   Overcast
2:35 AM 30.2 °F 21.9 °F 12.2 °F 47% 30.04 in 10.0 mi NNE 9.2 mph 16.1 mph N/A   Overcast
2:55 AM 30.2 °F 22.6 °F 10.4 °F 44% 30.06 in 10.0 mi North 8.1 mph - N/A   Overcast
3:15 AM 30.2 °F 21.3 °F 10.4 °F 44% 30.06 in 10.0 mi NNE 10.4 mph 16.1 mph N/A   Overcast
3:35 AM 30.2 °F 24.3 °F 10.4 °F 44% 30.08 in 10.0 mi North 5.8 mph - N/A   Overcast
3:55 AM 28.4 °F 19.1 °F 10.4 °F 47% 30.08 in 10.0 mi NNE 10.4 mph 18.4 mph N/A   Overcast
4:15 AM 28.4 °F 18.0 °F 8.6 °F 43% 30.08 in 10.0 mi North 12.7 mph 18.4 mph N/A   Overcast
4:35 AM 28.4 °F 19.1 °F 10.4 °F 47% 30.10 in 10.0 mi North 10.4 mph 19.6 mph N/A   Mostly Cloudy
4:55 AM 28.4 °F 18.5 °F 10.4 °F 47% 30.13 in 10.0 mi NNW 11.5 mph 18.4 mph N/A   Mostly Cloudy
5:35 AM 26.6 °F 15.2 °F 6.8 °F 43% 30.17 in 10.0 mi North 13.8 mph 19.6 mph N/A   Partly Cloudy
5:55 AM 26.6 °F 15.7 °F 6.8 °F 43% 30.18 in 10.0 mi North 12.7 mph 18.4 mph N/A   Clear
6:15 AM 26.6 °F 15.7 °F 6.8 °F 43% 30.20 in 10.0 mi North 12.7 mph 19.6 mph N/A   Clear
6:35 AM 24.8 °F 15.3 °F 5.0 °F 43% 30.22 in 10.0 mi North 9.2 mph 16.1 mph N/A   Clear
6:55 AM 23.0 °F 10.6 °F 5.0 °F 46% 30.25 in 10.0 mi North 13.8 mph 20.7 mph N/A   Clear
7:15 AM 23.0 °F 14.7 °F 3.2 °F 43% 30.26 in 10.0 mi North 6.9 mph 16.1 mph N/A   Clear
7:35 AM 23.0 °F 13.1 °F 3.2 °F 43% 30.29 in 10.0 mi North 9.2 mph - N/A   Clear
7:55 AM 23.0 °F 13.9 °F 3.2 °F 43% 30.30 in 10.0 mi North 8.1 mph - N/A   Clear
8:15 AM 24.8 °F 16.1 °F 3.2 °F 40% 30.31 in 10.0 mi North 8.1 mph - N/A   Clear
8:35 AM 23.0 °F 11.1 °F 1.4 °F 39% 30.32 in 10.0 mi North 12.7 mph 20.7 mph N/A   Clear
8:55 AM 23.0 °F 9.6 °F 1.4 °F 39% 30.33 in 10.0 mi NNW 16.1 mph 26.5 mph N/A   Clear
9:15 AM 23.0 °F 9.2 °F -0.4 °F 36% 30.35 in 10.0 mi NNW 17.3 mph 24.2 mph N/A   Clear
9:35 AM 23.0 °F 8.7 °F -0.4 °F 36% 30.36 in 10.0 mi NNW 18.4 mph 26.5 mph N/A   Clear
9:55 AM 24.8 °F 12.9 °F -0.4 °F 34% 30.37 in 10.0 mi North 13.8 mph 21.9 mph N/A   Clear
10:15 AM 24.8 °F 14.0 °F 1.4 °F 36% 30.37 in 10.0 mi North 11.5 mph 18.4 mph N/A   Clear
10:35 AM 24.8 °F 12.4 °F 1.4 °F 36% 30.36 in 10.0 mi NNW 15.0 mph 21.9 mph N/A   Clear
10:55 AM 24.8 °F 12.9 °F -0.4 °F 34% 30.36 in 10.0 mi North 13.8 mph 26.5 mph N/A   Clear
11:15 AM 24.8 °F 11.5 °F -0.4 °F 34% 30.35 in 10.0 mi NW 17.3 mph 23.0 mph N/A   Clear
11:35 AM 26.6 °F 16.2 °F -0.4 °F 31% 30.37 in 10.0 mi NNW 11.5 mph 21.9 mph N/A   Clear
11:55 AM 26.6 °F 15.2 °F -0.4 °F 31% 30.37 in 10.0 mi NNW 13.8 mph 25.3 mph N/A   Clear
12:15 PM 26.6 °F 15.2 °F -0.4 °F 31% 30.37 in 10.0 mi NNW 13.8 mph 24.2 mph N/A   Clear
12:35 PM 26.6 °F 16.2 °F -0.4 °F 31% 30.38 in 10.0 mi North 11.5 mph 23.0 mph N/A   Clear
12:55 PM 26.6 °F 16.8 °F -0.4 °F 31% 30.38 in 10.0 mi NNW 10.4 mph 19.6 mph N/A   Clear
1:15 PM 26.6 °F 15.7 °F -0.4 °F 31% 30.37 in 10.0 mi NNW 12.7 mph 17.3 mph N/A   Clear
1:35 PM 26.6 °F 16.2 °F -0.4 °F 31% 30.38 in 10.0 mi NW 11.5 mph - N/A   Clear
1:55 PM 28.4 °F 19.7 °F -0.4 °F 29% 30.39 in 10.0 mi NW 9.2 mph 16.1 mph N/A   Clear
2:35 PM 28.4 °F 19.1 °F -0.4 °F 29% 30.40 in 10.0 mi North 10.4 mph 19.6 mph N/A   Clear
2:55 PM 28.4 °F 20.4 °F -0.4 °F 29% 30.41 in 10.0 mi NW 8.1 mph - N/A   Clear
3:15 PM 28.4 °F 20.4 °F -0.4 °F 29% 30.39 in 10.0 mi NW 8.1 mph - N/A   Clear
3:35 PM 26.6 °F 20.0 °F -0.4 °F 31% 30.41 in 10.0 mi NW 5.8 mph - N/A   Clear
3:55 PM 26.6 °F 21.2 °F -0.4 °F 31% 30.41 in 10.0 mi NW 4.6 mph - N/A   Clear
4:15 PM 26.6 °F 22.6 °F -0.4 °F 31% 30.42 in 10.0 mi WNW 3.5 mph - N/A   Clear
4:35 PM 26.6 °F 22.6 °F 1.4 °F 34% 30.42 in 10.0 mi WNW 3.5 mph - N/A   Clear
4:55 PM 24.8 °F - 1.4 °F 36% 30.42 in 10.0 mi Calm Calm - N/A   Clear
5:15 PM 23.0 °F - 3.2 °F 43% 30.43 in 10.0 mi Calm Calm - N/A   Clear
5:35 PM 23.0 °F - 5.0 °F 46% 30.44 in 10.0 mi Calm Calm - N/A   Clear
5:55 PM 23.0 °F - 3.2 °F 43% 30.45 in 10.0 mi Calm Calm - N/A   Clear
6:15 PM 23.0 °F 18.4 °F 3.2 °F 43% 30.46 in 10.0 mi SW 3.5 mph - N/A   Clear
6:35 PM 24.8 °F 19.1 °F 1.4 °F 36% 30.47 in 10.0 mi WSW 4.6 mph - N/A   Clear
6:55 PM 24.8 °F 20.5 °F 1.4 °F 36% 30.46 in 10.0 mi West 3.5 mph - N/A   Clear
7:15 PM 23.0 °F 18.4 °F 3.2 °F 43% 30.46 in 10.0 mi WSW 3.5 mph - N/A   Clear
7:35 PM 23.0 °F 18.4 °F 5.0 °F 46% 30.46 in 9.0 mi West 3.5 mph - N/A   Clear
7:55 PM 23.0 °F - 3.2 °F 43% 30.45 in 10.0 mi Calm Calm - N/A   Clear
8:15 PM 23.0 °F 18.4 °F 5.0 °F 46% 30.44 in 10.0 mi WSW 3.5 mph - N/A   Clear
8:35 PM 24.8 °F 20.5 °F 5.0 °F 43% 30.44 in 10.0 mi WSW 3.5 mph - N/A   Clear
9:15 PM 24.8 °F 20.5 °F 5.0 °F 43% 30.43 in 10.0 mi SW 3.5 mph - N/A   Clear
9:35 PM 23.0 °F 17.0 °F 5.0 °F 46% 30.41 in 10.0 mi SSW 4.6 mph - N/A   Clear
9:55 PM 24.8 °F 17.9 °F 6.8 °F 46% 30.41 in 10.0 mi SSW 5.8 mph - N/A   Clear
10:15 PM 26.6 °F 22.6 °F 8.6 °F 47% 30.42 in 10.0 mi West 3.5 mph - N/A   Clear
10:35 PM 26.6 °F 21.2 °F 10.4 °F 51% 30.41 in 10.0 mi SW 4.6 mph - N/A   Clear
10:55 PM 26.6 °F 22.6 °F 10.4 °F 51% 30.41 in 10.0 mi SW 3.5 mph - N/A   Clear
11:35 PM 28.4 °F 22.2 °F 12.2 °F 51% 30.38 in 10.0 mi SW 5.8 mph - N/A   Clear
11:55 PM 30.2 °F 21.3 °F 12.2 °F 47% 30.37 in 10.0 mi SW 10.4 mph 16.1 mph N/A   Clear